GW2669 Weather Reports


Display with metric or nautical units.
time (UTC)temp
F
wind
direction
speed
MPH
gust
MPH
rain 1hr
in
rain 24hr
in
rain mn
in
humidity
%
barometer
mb
20260905220103 98 0 0.0 12.0 0.00 0.00 0.00 34 1011.3
20260905214602 97 72 10.0 14.0 0.00 0.00 0.00 32 1011.4
20260905213059 97 91 5.0 10.0 0.00 0.00 0.00 31 1011.5
20260905211601 97 67 8.0 13.0 0.00 0.00 0.00 34 1011.7
20260905210120 96 87 8.0 19.0 0.00 0.00 0.00 37 1012.0
20260905204604 94 78 5.0 10.0 0.00 0.00 0.00 34 1012.3
20260905203101 100 128 3.0 14.0 0.00 0.00 0.00 31 1012.4
20260905201602 99 0 3.0 10.0 0.00 0.00 0.00 29 1012.6
20260905200114 100 133 0.0 4.0 0.00 0.00 0.00 29 1012.8
20260905194610 98 0 2.0 10.0 0.00 0.00 0.00 30 1013.1
20260905193102 100 148 0.0 7.0 0.00 0.00 0.00 31 1013.3
20260905191603 98 98 0.0 4.0 0.00 0.00 0.00 34 1013.6
20260905190112 97 0 4.0 10.0 0.00 0.00 0.00 32 1013.9
20260905184624 98 0 1.0 3.0 0.00 0.00 0.00 31 1014.3
20260905183107 97 0 0.0 4.0 0.00 0.00 0.00 35 1014.5
20260905181602 95 215 0.0 7.0 0.00 0.00 0.00 36 1014.5
20260905180104 95 0 0.0 6.0 0.00 0.00 0.00 38 1015.0
20260905174600 95 116 1.0 7.0 0.00 0.00 0.00 38 1015.2
20260905173113 93 0 2.0 5.0 0.00 0.00 0.00 38 1015.5
20260905171619 92 0 1.0 7.0 0.00 0.00 0.00 39 1015.5
20260905170109 92 59 2.0 5.0 0.00 0.00 0.00 40 1015.5
20260905164603 91 0 0.0 6.0 0.00 0.00 0.00 41 1015.6
20260905163113 90 0 0.0 4.0 0.00 0.00 0.00 42 1015.6
20260905161600 90 15 0.0 4.0 0.00 0.00 0.00 42 1015.6
20260905154615 88 0 0.0 3.0 0.00 0.00 0.00 45 1015.8
20260905153107 88 0 0.0 0.0 0.00 0.00 0.00 47 1015.9
20260905151614 86 0 0.0 3.0 0.00 0.00 0.00 49 1015.6
20260905144600 83 55 2.0 6.0 0.00 0.00 0.00 57 1015.8
20260905143101 82 55 3.0 6.0 0.00 0.00 0.00 58 1015.6
20260905141600 81 42 4.0 8.0 0.00 0.00 0.00 58 1015.7
20260905134600 79 0 0.0 0.0 0.00 0.00 0.00 60 1015.4
20260905133101 76 0 0.0 3.0 0.00 0.00 0.00 63 1015.2
20260905131604 74 0 0.0 0.0 0.00 0.00 0.00 66 1014.9
20260905130059 73 0 0.0 0.0 0.00 0.00 0.00 66 1014.7
20260905124601 72 286 0.0 3.0 0.00 0.00 0.00 68 1014.6
20260905123102 72 0 0.0 1.0 0.00 0.00 0.00 66 1014.5
20260905121602 72 0 0.0 3.0 0.00 0.00 0.00 67 1014.6
20260905114602 73 51 2.0 3.0 0.00 0.00 0.00 68 1014.5
20260905113058 75 0 0.0 0.0 0.00 0.00 0.00 62 1014.1
20260905111644 75 0 0.0 0.0 0.00 0.00 0.00 62 1014.0
20260905110101 73 0 0.0 0.0 0.00 0.00 0.00 68 1013.8
20260905104607 73 0 0.0 0.0 0.00 0.00 0.00 68 1013.9
20260905103102 75 0 0.0 0.0 0.00 0.00 0.00 62 1014.0
20260905101606 75 0 0.0 2.0 0.00 0.00 0.00 61 1013.9
20260905100105 75 0 0.0 0.0 0.00 0.00 0.00 61 1013.8
20260905094601 75 0 0.0 0.0 0.00 0.00 0.00 62 1014.0
20260905093105 76 0 0.0 0.0 0.00 0.00 0.00 59 1013.8
20260905091601 77 0 0.0 3.0 0.00 0.00 0.00 58 1013.9
20260905090059 78 146 3.0 5.0 0.00 0.00 0.00 56 1013.6
20260905084607 79 248 2.0 4.0 0.00 0.00 0.00 54 1013.9
20260905083056 78 0 0.0 1.0 0.00 0.00 0.00 56 1013.7
20260905081600 78 0 0.0 3.0 0.00 0.00 0.00 56 1013.8
20260905080122 78 213 0.0 4.0 0.00 0.00 0.00 57 1013.9
20260905074602 78 0 0.0 1.0 0.00 0.00 0.00 57 1014.1
20260905073102 79 0 2.0 5.0 0.00 0.00 0.00 55 1014.2
20260905071559 80 0 0.0 3.0 0.00 0.00 0.00 54 1014.2
20260905064605 82 266 5.0 7.0 0.00 0.00 0.00 51 1014.4
20260905063102 82 282 4.0 9.0 0.00 0.00 0.00 50 1014.3
20260905061604 83 218 3.0 5.0 0.00 0.00 0.00 49 1014.0
20260905060103 84 228 1.0 4.0 0.00 0.00 0.00 49 1014.2
20260905054559 84 257 0.0 3.0 0.00 0.00 0.00 49 1014.3
20260905053110 84 248 0.0 6.0 0.00 0.00 0.00 49 1014.3
20260905051559 83 269 3.0 5.0 0.00 0.00 0.00 50 1014.4
20260905050106 84 166 3.0 7.0 0.00 0.00 0.00 50 1014.3
20260905044557 84 172 3.0 10.0 0.00 0.00 0.00 48 1014.3
20260905043105 85 159 5.0 13.0 0.00 0.00 0.00 47 1014.0
20260905041604 85 161 7.0 19.0 0.00 0.00 0.00 45 1013.9
20260905040106 86 160 13.0 21.0 0.00 0.00 0.00 44 1013.8
20260905034611 87 147 14.0 18.0 0.00 0.00 0.00 43 1013.7
20260905033118 87 139 14.0 23.0 0.00 0.00 0.00 42 1013.6
20260905031614 87 97 3.0 7.0 0.00 0.00 0.00 42 1013.6
20260905030105 87 0 0.0 6.0 0.00 0.00 0.00 41 1013.3
20260905024601 88 146 3.0 7.0 0.00 0.00 0.00 40 1013.1
20260905023127 89 222 4.0 7.0 0.00 0.00 0.00 39 1012.7
20260905021602 89 240 4.0 8.0 0.00 0.00 0.00 39 1012.5
20260905014601 90 253 5.0 9.0 0.00 0.00 0.00 37 1012.0
20260905013100 91 255 5.0 8.0 0.00 0.00 0.00 35 1011.8
20260905011602 92 247 5.0 9.0 0.00 0.00 0.00 34 1011.9
20260905010109 93 246 6.0 9.0 0.00 0.00 0.00 32 1011.9
20260905004630 93 0 3.0 8.0 0.00 0.00 0.00 33 1012.0
20260905003106 94 267 6.0 11.0 0.00 0.00 0.00 31 1011.8
20260905001602 94 238 6.0 12.0 0.00 0.00 0.00 31 1011.7
20260905000132 94 271 8.0 12.0 0.00 0.00 0.00 30 1011.4
20260904234600 95 254 9.0 15.0 0.00 0.00 0.00 30 1011.4
20260904233101 95 263 10.0 15.0 0.00 0.00 0.00 30 1011.5
20260904231559 97 280 12.0 17.0 0.00 0.00 0.00 27 1011.4
20260904230109 97 264 12.0 16.0 0.00 0.00 0.00 27 1011.2
20260904224600 96 266 11.0 17.0 0.00 0.00 0.00 30 1011.1
20260904223058 95 259 14.0 21.0 0.00 0.00 0.00 31 1011.1
20260904221605 96 267 16.0 22.0 0.00 0.00 0.00 32 1011.2